Weather History for KBPI - April, 2013

Change the Weather History Date:

Wednesday, April 3, 2013

  Actual Average Record
Temperature  
Mean Temperature 40 °F 34 °F  
Max Temperature 60 °F 49 °F 64 °F (1990)
Min Temperature 20 °F 19 °F 0 °F (1999)
Degree Days  
Heating Degree Days 25 31  
Month to date heating degree days 76 94  
Since 1 July heating degree days 8058 8789  
Cooling Degree Days 0 0  
Month to date cooling degree days 0 0  
Year to date cooling degree days 0 0  
Moisture  
Dew Point 18 °F    
Average Humidity 46    
Maximum Humidity 77    
Minimum Humidity 14    
Precipitation  
Precipitation 0.00 in 0.02 in 0.07 in (1998)
Month to date precipitation 0.00 0.05  
Year to date precipitation 0.19 1.15  
Sea Level Pressure  
Sea Level Pressure 30.07 in    
Wind  
Wind Speed 6 mph (NNW)    
Max Wind Speed 21 mph    
Max Gust Speed 29 mph    
Visibility 10 miles    
Events      
T = Trace of Precipitation, MM = Missing Value Source: NWS Daily Summary

Daily Weather History Graph

Daily Weather History Graph

Search for Another Location

Airport or City:

Trip Planner

Search our weather history database for the weather conditions in past years. The results will help you decide how hot, cold, wet, or windy it might be!

Date:

Astronomy

Apr. 03, 2013 Rise Set
Actual Time 6:58 AM MDT 7:49 PM MDT
Civil Twilight 6:30 AM MDT 8:17 PM MDT
Nautical Twilight 5:56 AM MDT 8:51 PM MDT
Astronomical Twilight 5:21 AM MDT 9:27 PM MDT
Moon 2:50 AM MDT 12:57 PM MDT
Length of Visible Light 13h 47m
Length of Day
12h 50m
Last Quarter, 44% of the Moon is Illuminated
Apr 3
Last Quarter
Apr 10
New
Apr 18
First Quarter
Apr 25
Full
May 2
Last Quarter

Hourly Weather History & Observations

Time (MDT) Temp. Windchill Dew Point Humidity Pressure Visibility Wind Dir Wind Speed Gust Speed Precip Events Conditions
12:53 AM 33.1 °F - 12.9 °F 43% 30.01 in 10.0 mi Calm Calm - N/A   Clear
1:53 AM 24.1 °F 18.2 °F 12.9 °F 62% 30.06 in 10.0 mi North 4.6 mph - N/A   Clear
2:53 AM 26.1 °F 18.4 °F 12.9 °F 58% 30.04 in 10.0 mi East 6.9 mph - N/A   Clear
3:53 AM 25.0 °F 20.7 °F 12.0 °F 58% 30.04 in 10.0 mi NNW 3.5 mph - N/A   Clear
4:53 AM 24.1 °F - 15.1 °F 69% 30.06 in 10.0 mi Calm Calm - N/A   Clear
5:53 AM 21.9 °F 17.2 °F 15.1 °F 75% 30.05 in 10.0 mi NNE 3.5 mph - N/A   Clear
6:53 AM 19.9 °F - 14.0 °F 78% 30.09 in 10.0 mi Calm Calm - N/A   Clear
7:53 AM 27.0 °F - 17.1 °F 66% 30.12 in 10.0 mi Calm Calm - N/A   Clear
8:53 AM 33.1 °F 28.7 °F 18.0 °F 54% 30.11 in 10.0 mi East 4.6 mph - N/A   Clear
9:53 AM 43.0 °F 40.3 °F 18.0 °F 37% 30.08 in 10.0 mi East 4.6 mph - N/A   Clear
10:53 AM 48.9 °F - 19.0 °F 31% 30.07 in 10.0 mi Calm Calm - N/A   Clear
11:53 AM 53.1 °F - 19.0 °F 26% 30.04 in 10.0 mi Calm Calm - N/A   Clear
12:53 PM 57.0 °F - 16.0 °F 20% 30.02 in 10.0 mi West 5.8 mph - N/A   Clear
1:53 PM 60.1 °F - 10.9 °F 14% 30.04 in 10.0 mi West 11.5 mph 20.7 mph N/A   Clear
2:53 PM 57.0 °F - 14.0 °F 18% 30.04 in 10.0 mi NW 12.7 mph 20.7 mph N/A   Clear
3:53 PM 57.0 °F - 19.9 °F 24% 30.05 in 10.0 mi NW 15.0 mph 25.3 mph N/A   Scattered Clouds
4:53 PM 55.0 °F - 19.9 °F 25% 30.05 in 10.0 mi NW 18.4 mph 23.0 mph N/A   Clear
5:53 PM 55.9 °F - 19.0 °F 24% 30.07 in 10.0 mi NW 15.0 mph - N/A   Clear
6:53 PM 53.1 °F - 19.9 °F 27% 30.11 in 10.0 mi NNW 12.7 mph - N/A   Clear
7:53 PM 45.0 °F 39.3 °F 25.0 °F 46% 30.13 in 10.0 mi North 11.5 mph - N/A   Clear
8:53 PM 37.9 °F 34.4 °F 25.0 °F 60% 30.14 in 10.0 mi NW 4.6 mph - N/A   Clear
9:53 PM 34.0 °F 27.2 °F 23.0 °F 64% 30.12 in 10.0 mi North 8.1 mph - N/A   Clear
10:53 PM 30.9 °F 27.5 °F 23.0 °F 72% 30.13 in 10.0 mi West 3.5 mph - N/A   Clear
11:53 PM 32.0 °F - 23.0 °F 69% 30.09 in 10.0 mi Calm Calm - N/A   Clear